This is the latest recevied weather packets stored in our database for station/object KF7SOJ. If no packets are shown the sender has not sent any weather packets the latest 1 day(s).
| Time | Temp. | Humidity | Pressure | Rain* | Wind** | Luminosity | Snow |
|---|---|---|---|---|---|---|---|
| 1777995248 | 7.22° C | 47% | 933.5 hPa | 0 mm | 1.79 m/s, 41° | 316 W/m² | - |
| 1777994944 | 7.22° C | 47% | 933.5 hPa | 0 mm | 1.79 m/s, 41° | 316 W/m² | - |
| 1777994642 | 7.22° C | 47% | 933.6 hPa | 0 mm | 1.79 m/s, 41° | 316 W/m² | - |
| 1777994341 | 7.22° C | 49% | 933.8 hPa | 0 mm | 0.89 m/s, 334° | 255 W/m² | - |
| 1777994038 | 7.22° C | 50% | 933.6 hPa | 0 mm | 1.34 m/s, 42° | 507 W/m² | - |
| 1777993735 | 7.22° C | 52% | 933.8 hPa | 0 mm | 1.79 m/s, 31° | 369 W/m² | - |
| 1777993433 | 6.67° C | 54% | 933.6 hPa | 0 mm | 1.34 m/s, 294° | 432 W/m² | - |
| 1777993132 | 6.67° C | 52% | 933.8 hPa | 0 mm | 4.92 m/s, 244° | 332 W/m² | - |
| 1777992831 | 6.11° C | 52% | 933.7 hPa | 0 mm | 2.24 m/s, 210° | 386 W/m² | - |
| 1777992528 | 6.11° C | 53% | 933.7 hPa | 0 mm | 2.68 m/s, 289° | 432 W/m² | - |
| 1777992227 | 6.11° C | 53% | 933.7 hPa | 0 mm | 3.58 m/s, 237° | 264 W/m² | - |
| 1777991923 | 5.56° C | 54% | 933.7 hPa | 0 mm | 2.24 m/s, 247° | 366 W/m² | - |
| 1777991621 | 5° C | 56% | 933.8 hPa | 0 mm | 1.34 m/s, 226° | 202 W/m² | - |
| 1777991318 | 5.56° C | 54% | 933.9 hPa | 0 mm | 2.24 m/s, 248° | 181 W/m² | - |
| 1777991015 | 5.56° C | 52% | 933.9 hPa | 0 mm | 2.68 m/s, 234° | 157 W/m² | - |
| 1777990712 | 6.11° C | 53% | 934.1 hPa | 0 mm | 4.47 m/s, 235° | 242 W/m² | - |
| 1777990410 | 6.11° C | 51% | 933.9 hPa | 0 mm | 2.68 m/s, 244° | 272 W/m² | - |
| 1777990106 | 6.67° C | 51% | 934 hPa | 0 mm | 1.34 m/s, 276° | 267 W/m² | - |
| 1777989803 | 6.11° C | 52% | 933.8 hPa | 0 mm | 1.79 m/s, 251° | 262 W/m² | - |
| 1777989500 | 6.67° C | 51% | 933.7 hPa | 0 mm | 1.79 m/s, 287° | 283 W/m² | - |
| 1777989196 | 6.11° C | 51% | 933.8 hPa | 0 mm | 2.24 m/s, 287° | 292 W/m² | - |
| 1777988892 | 5.56° C | 52% | 933.7 hPa | 0 mm | 0.45 m/s, 316° | 299 W/m² | - |
| 1777988589 | 5.56° C | 53% | 933.8 hPa | 0 mm | 0.89 m/s, 303° | 246 W/m² | - |
| 1777988286 | 5.56° C | 54% | 933.7 hPa | 0 mm | 0.89 m/s, 253° | 187 W/m² | - |
| 1777987982 | 5° C | 57% | 933.7 hPa | 0 mm | 0.45 m/s, 267° | 236 W/m² | - |
* Rain latest hour (hover to see other rain measurements)
** Current wind speed in m/s (hover to see current wind gust speed)